Le nostre stazioni meteo in Italia

Pubblicità
Il mio iltempo24.it
Torino Venaria, Italia (16060): Temperatura & dewpoint: 24.03.2020 12:00:00 - 30.03.2020 12:00:00 (CEST)Torino Venaria, Italia (16060): velocità del vento: 24.03.2020 12:00:00 - 30.03.2020 12:00:00 (CEST)Torino Venaria, Italia (16060): direzione del vento: 24.03.2020 12:00:00 - 30.03.2020 12:00:00 (CEST)Torino Venaria, Italia (16060): reduced air pressure: 24.03.2020 12:00:00 - 30.03.2020 12:00:00 (CEST)Torino Venaria, Italia (16060): precipitazioni: 24.03.2020 12:00:00 - 30.03.2020 12:00:00 (CEST)
Data & Tempo tt [°C] td [°C] ff [km/h] ff [kn] dd ppp [hPa] rr [mm]
30.03.2020 12:00:00 - - - - - - -
30.03.2020 11:00:00 8,0 8,0 4 2 ENE 1012,4 -
30.03.2020 10:00:00 7,8 7,8 4 2 ESE 1011,7 -
30.03.2020 09:00:00 7,3 7,2 4 2 NNE 1011,3 -
30.03.2020 08:00:00 7,4 6,6 2 1 O 1010,7 -
30.03.2020 07:00:00 7,6 7,1 4 2 ESE 1010,4 -
30.03.2020 06:00:00 7,9 7,1 0 0 N 1010,1 -
30.03.2020 05:00:00 7,8 6,9 4 2 S 1010,0 -
30.03.2020 04:00:00 8,7 6,5 5 3 NNE 1009,6 -
30.03.2020 03:00:00 9,0 5,1 4 2 NNE 1009,8 -
30.03.2020 02:00:00 9,1 7,4 5 3 NNE 1009,6 -
30.03.2020 01:00:00 9,4 7,7 5 3 NNO 1009,4 -
30.03.2020 00:00:00 9,6 7,0 2 1 NO 1009,9 -
29.03.2020 23:00:00 10,9 5,4 5 3 NNO 1009,4 -
29.03.2020 22:00:00 12,7 4,3 11 6 NNE 1008,5 -
29.03.2020 21:00:00 13,4 5,2 4 2 NE 1008,0 -
29.03.2020 20:00:00 14,2 3,8 5 3 NE 1007,5 0,0
29.03.2020 19:00:00 15,2 3,6 9 5 NE 1007,2 -
29.03.2020 18:00:00 16,2 3,8 5 3 NNE 1006,9 -
29.03.2020 17:00:00 16,3 3,9 9 5 N 1007,4 -
29.03.2020 16:00:00 15,9 4,2 8 4 ENE 1007,8 -
29.03.2020 15:00:00 15,9 3,6 9 5 NE 1008,4 -
29.03.2020 14:00:00 15,2 2,9 9 5 ENE 1009,3 0,0
29.03.2020 13:00:00 13,6 3,0 11 6 NE 1010,0 -
29.03.2020 12:00:00 13,2 4,0 11 6 ENE 1010,3 -
29.03.2020 11:00:00 11,7 5,3 8 4 ENE 1010,8 -
29.03.2020 10:00:00 10,5 8,6 5 3 ENE 1011,0 -
29.03.2020 09:00:00 7,1 6,3 2 1 NO 1011,1 -
29.03.2020 08:00:00 6,6 5,7 4 2 O 1011,0 0,0
29.03.2020 07:00:00 6,6 5,5 2 1 OSO 1010,9 -
29.03.2020 06:00:00 6,6 5,4 4 2 ONO 1011,2 -
29.03.2020 05:00:00 7,0 5,6 2 1 O 1011,3 -
29.03.2020 04:00:00 6,9 5,4 2 1 O 1011,6 -
29.03.2020 03:00:00 7,0 5,1 2 1 O 1011,9 -
29.03.2020 02:00:00 7,3 5,6 4 2 ONO 1012,3 0,0
29.03.2020 01:00:00 6,1 3,9 5 3 ONO 1012,4 -
29.03.2020 00:00:00 6,1 2,5 4 2 ONO 1012,3 -
28.03.2020 23:00:00 8,0 3,4 5 3 NO 1011,8 -
28.03.2020 22:00:00 8,3 2,7 2 1 NO 1011,6 -
28.03.2020 21:00:00 9,3 1,4 5 3 ONO 1011,0 -
28.03.2020 20:00:00 13,4 2,8 4 2 S 1010,2 0,0
28.03.2020 19:00:00 16,1 4,1 8 4 SO 1009,6 -
28.03.2020 18:00:00 17,0 4,2 9 5 SSO 1009,4 -
28.03.2020 17:00:00 17,0 4,2 8 4 SO 1009,8 -
28.03.2020 16:00:00 16,8 4,4 8 4 SSO 1010,4 -
28.03.2020 15:00:00 16,0 4,9 8 4 OSO 1011,1 -
28.03.2020 14:00:00 15,4 3,7 8 4 S 1012,1 0,0
28.03.2020 13:00:00 14,5 4,1 8 4 S 1012,7 -
28.03.2020 12:00:00 12,9 5,2 5 3 E 1013,5 -
28.03.2020 11:00:00 11,2 7,1 4 2 E 1013,8 -
28.03.2020 10:00:00 8,8 8,5 0 0 N 1014,1 -
28.03.2020 09:00:00 6,4 6,4 4 2 O 1014,9 -
28.03.2020 08:00:00 5,1 4,8 2 1 NNO 1015,2 -
28.03.2020 07:00:00 5,7 5,7 4 2 ENE 1015,0 -
28.03.2020 06:00:00 5,5 5,4 5 3 NE 1015,4 -
28.03.2020 05:00:00 5,7 5,7 2 1 ENE 1015,6 -
28.03.2020 04:00:00 5,5 5,5 2 1 NE 1016,2 -
28.03.2020 03:00:00 5,5 5,5 4 2 O 1016,8 -
28.03.2020 02:00:00 5,2 4,8 2 1 SSE 1017,3 0,0
28.03.2020 01:00:00 5,5 4,8 4 2 NO 1017,3 -
28.03.2020 00:00:00 5,2 4,0 0 0 N 1017,2 -
27.03.2020 23:00:00 6,2 4,8 4 2 O 1016,5 -
27.03.2020 22:00:00 6,5 5,0 8 4 SSE 1016,1 -
27.03.2020 21:00:00 6,4 4,4 11 6 SSO 1015,6 -
27.03.2020 20:00:00 6,8 4,6 16 9 S 1014,8 -
27.03.2020 19:00:00 7,4 5,0 16 9 S 1014,9 -
27.03.2020 18:00:00 8,2 4,0 18 10 SSO 1014,6 -
27.03.2020 17:00:00 7,6 4,7 18 10 SSO 1015,2 -
27.03.2020 16:00:00 7,8 4,5 22 12 SSO 1015,7 -
27.03.2020 15:00:00 7,2 3,8 15 8 SSO 1016,1 -
27.03.2020 14:00:00 7,1 4,5 15 8 S 1016,0 -
27.03.2020 13:00:00 6,3 4,6 16 9 SO 1016,1 -
27.03.2020 12:00:00 5,9 4,5 16 9 OSO 1016,0 -
27.03.2020 11:00:00 5,0 3,6 13 7 OSO 1016,0 -
27.03.2020 10:00:00 5,0 3,3 11 6 SO 1015,2 -
27.03.2020 09:00:00 3,9 3,0 9 5 SSO 1014,7 -
27.03.2020 08:00:00 3,5 2,5 15 8 OSO 1014,7 -
27.03.2020 07:00:00 3,3 2,4 13 7 SO 1014,6 -
27.03.2020 06:00:00 3,4 2,7 11 6 SO 1014,7 -
27.03.2020 05:00:00 2,7 1,8 2 1 O 1015,3 -
27.03.2020 04:00:00 2,5 0,8 8 4 SO 1015,8 -
27.03.2020 03:00:00 2,6 0,8 2 1 NNE 1016,3 -
27.03.2020 02:00:00 2,6 1,4 5 3 NNO 1016,3 -
27.03.2020 01:00:00 2,4 0,9 2 1 N 1016,5 -
27.03.2020 00:00:00 2,5 0,4 2 1 ONO 1016,2 -
26.03.2020 23:00:00 2,7 0,2 4 2 OSO 1015,9 -
26.03.2020 22:00:00 3,2 -0,1 8 4 S 1014,9 -
26.03.2020 21:00:00 3,1 -0,8 5 3 OSO 1014,3 -
26.03.2020 20:00:00 3,8 -2,0 11 6 S 1013,4 0,0
26.03.2020 19:00:00 4,0 -2,3 15 8 S 1013,3 -
26.03.2020 18:00:00 3,7 -2,6 16 9 S 1013,5 -
26.03.2020 17:00:00 4,2 -3,0 15 8 S 1013,8 -
26.03.2020 16:00:00 4,2 -3,2 13 7 SSO 1014,1 -
26.03.2020 15:00:00 3,7 -2,8 16 9 ONO 1015,1 -
26.03.2020 14:00:00 5,4 -8,3 8 4 ONO 1014,6 0,0
26.03.2020 13:00:00 4,9 -7,7 4 2 ONO 1014,5 -
26.03.2020 12:00:00 4,5 -8,1 2 1 N 1014,3 -
26.03.2020 11:00:00 3,7 -7,6 4 2 ENE 1014,0 -
26.03.2020 10:00:00 2,6 -4,5 2 1 ENE 1014,4 -
26.03.2020 09:00:00 -2,2 -4,9 2 1 NO 1015,1 -
26.03.2020 08:00:00 -3,1 -7,3 4 2 NO 1015,6 0,0
26.03.2020 07:00:00 -3,5 -9,6 2 1 O 1015,5 -
26.03.2020 06:00:00 -0,8 -6,8 5 3 ONO 1015,8 -
26.03.2020 05:00:00 0,4 -5,7 2 1 NNO 1016,2 -
26.03.2020 04:00:00 1,1 -5,7 2 1 NNE 1016,5 -
26.03.2020 03:00:00 1,6 -5,0 5 3 ENE 1017,1 -
26.03.2020 02:00:00 0,9 -5,4 4 2 N 1017,4 0,0
26.03.2020 01:00:00 1,3 -5,3 9 5 NNO 1017,8 -
26.03.2020 00:00:00 3,0 -5,0 9 5 ONO 1018,1 -
25.03.2020 23:00:00 3,1 -5,2 5 3 NO 1018,3 -
25.03.2020 22:00:00 3,9 -6,5 9 5 NNE 1018,2 -
25.03.2020 21:00:00 4,3 -7,0 9 5 ENE 1017,7 -
25.03.2020 20:00:00 4,8 -7,2 2 1 NNE 1016,9 0,0
25.03.2020 19:00:00 5,5 -6,8 4 2 NO 1016,5 -
25.03.2020 18:00:00 5,9 -6,2 4 2 ONO 1016,4 -
25.03.2020 17:00:00 5,3 -7,3 4 2 O 1016,8 -
25.03.2020 16:00:00 5,2 -6,8 8 4 O 1017,7 -
25.03.2020 15:00:00 4,5 -7,1 8 4 SO 1018,6 -
25.03.2020 14:00:00 4,6 -6,7 9 5 S 1019,1 0,0
25.03.2020 13:00:00 3,8 -6,9 9 5 E 1019,7 -
25.03.2020 12:00:00 3,5 -8,0 4 2 NE 1020,1 -
25.03.2020 11:00:00 3,1 -7,5 5 3 NE 1020,3 -
25.03.2020 10:00:00 2,7 -6,5 2 1 N 1020,4 -
25.03.2020 09:00:00 2,1 -6,1 2 1 NNO 1020,1 -
25.03.2020 08:00:00 1,1 -6,3 4 2 N 1020,6 0,0
25.03.2020 07:00:00 0,5 -6,9 4 2 N 1021,1 -
25.03.2020 06:00:00 -0,1 -8,2 4 2 N 1021,2 -
25.03.2020 05:00:00 -0,2 -8,3 5 3 N 1021,8 -
25.03.2020 04:00:00 0,1 -7,7 5 3 N 1022,1 -
25.03.2020 03:00:00 -2,9 -6,9 4 2 NNE 1022,4 -
25.03.2020 02:00:00 -3,2 -8,0 2 1 NNO 1022,2 0,0
25.03.2020 01:00:00 -2,9 -8,8 4 2 NO 1021,9 -
25.03.2020 00:00:00 -1,8 -9,1 2 1 NNO 1021,4 -
24.03.2020 23:00:00 1,0 -7,4 2 1 ONO 1020,8 -
24.03.2020 22:00:00 1,7 -7,5 8 4 SSO 1020,7 -
24.03.2020 21:00:00 2,8 -8,4 11 6 SSO 1020,7 -
24.03.2020 20:00:00 5,6 -9,2 9 5 S 1020,6 0,0
24.03.2020 19:00:00 8,1 -9,0 15 8 SSO 1020,4 -
24.03.2020 18:00:00 9,2 -8,1 9 5 S 1020,3 -
24.03.2020 17:00:00 9,6 -9,1 5 3 ESE 1020,9 -
24.03.2020 16:00:00 9,6 -8,6 5 3 S 1021,8 -
24.03.2020 15:00:00 8,7 -6,4 8 4 SSE 1022,6 -
24.03.2020 14:00:00 7,9 -4,7 15 8 SO 1023,3 0,0
24.03.2020 13:00:00 7,1 -4,8 7 4 OSO 1024,1 -
24.03.2020 12:00:00 - - - - - - -

tt = Temperatura
td = dewpoint
ff = velocità del vento
dd = direzione del vento
ppp = reduced air pressure
rr = precipitazioni

Stazioni seguenti

WeatherPro
AMSI
MeteoEarth